GW7041 Weather Reports


time (UTC)temp
F
wind
direction
speed
knots
gust
knots
rain 1hr
in
rain 24hr
in
rain mn
in
humidity
%
barometer
mb
20260507103922 43 179 0.0 0.9 0.00 0.00 0.00 87 1021.3
20260507103423 43 217 0.0 0.9 0.00 0.00 0.00 87 1021.3
20260507102924 43 224 0.0 0.0 0.00 0.00 0.00 86 1021.3
20260507102425 43 224 0.0 0.9 0.00 0.00 0.00 87 1021.7
20260507101924 43 190 0.0 1.7 0.00 0.00 0.00 87 1021.7
20260507101422 43 135 0.0 0.0 0.00 0.00 0.00 86 1021.7
20260507100924 43 182 0.9 0.9 0.00 0.00 0.00 85 1021.7
20260507100424 43 275 1.7 1.7 0.00 0.00 0.00 84 1021.7
20260507095924 43 223 0.0 1.7 0.00 0.00 0.00 83 1021.3
20260507095425 43 153 1.7 1.7 0.00 0.00 0.00 83 1021.3
20260507094924 43 203 0.0 1.7 0.00 0.00 0.00 84 1021.3
20260507094426 43 135 0.0 1.7 0.00 0.00 0.00 86 1021.3
20260507093923 42 168 1.7 2.6 0.00 0.00 0.00 88 1021.3
20260507093425 42 235 0.0 0.0 0.00 0.00 0.00 89 1021.7
20260507092925 42 304 0.0 0.0 0.00 0.00 0.00 89 1021.7
20260507092424 42 237 0.0 0.9 0.00 0.00 0.00 88 1021.7
20260507091923 42 264 0.0 1.7 0.00 0.00 0.00 88 1022.0
20260507091425 42 216 0.0 0.9 0.00 0.00 0.00 87 1021.7
20260507090925 42 224 0.0 0.9 0.00 0.00 0.00 86 1021.7
20260507090424 42 217 0.0 0.9 0.00 0.00 0.00 85 1021.7
20260507085923 41 212 0.0 0.0 0.00 0.00 0.00 85 1021.7
20260507085424 40 157 1.7 1.7 0.00 0.00 0.00 87 1021.7
20260507084924 40 157 0.0 0.0 0.00 0.00 0.00 86 1021.7
20260507084424 41 309 0.0 0.0 0.00 0.00 0.00 86 1021.7
20260507083924 41 309 0.0 0.0 0.00 0.00 0.00 86 1021.3
20260507083423 41 309 0.0 0.0 0.00 0.00 0.00 85 1021.7
20260507082923 41 309 0.0 0.0 0.00 0.00 0.00 85 1021.7
20260507082423 41 231 0.0 0.0 0.00 0.00 0.00 84 1022.0
20260507081926 41 217 0.0 0.0 0.00 0.00 0.00 81 1021.7
20260507081424 42 44 0.0 0.0 0.00 0.00 0.00 77 1021.3
20260507080925 41 44 0.0 0.0 0.00 0.00 0.00 77 1021.3
20260507080424 41 40 0.0 0.9 0.00 0.00 0.00 78 1021.3
20260507075924 42 235 0.0 0.0 0.00 0.00 0.00 78 1021.3
20260507075422 42 235 0.0 0.0 0.00 0.00 0.00 78 1021.3
20260507074923 42 129 0.0 0.0 0.00 0.00 0.00 77 1021.7
20260507074422 43 103 0.0 0.9 0.00 0.00 0.00 76 1021.7
20260507073922 42 31 0.9 0.9 0.00 0.00 0.00 72 1021.7
20260507073424 43 332 0.0 0.0 0.00 0.00 0.00 76 1021.7
20260507072924 43 121 0.0 0.0 0.00 0.00 0.00 76 1021.3
20260507072424 42 119 0.0 0.9 0.00 0.00 0.00 79 1021.7
20260507071924 42 124 0.0 0.0 0.00 0.00 0.00 77 1022.0
20260507071423 42 50 0.0 0.0 0.00 0.00 0.00 75 1021.7
20260507070922 43 50 0.0 0.0 0.00 0.00 0.00 77 1022.0
20260507070422 43 119 0.0 0.0 0.00 0.00 0.00 77 1022.0
20260507065924 43 107 0.0 0.9 0.00 0.00 0.00 78 1022.0
20260507065425 42 89 0.0 0.9 0.00 0.00 0.00 78 1022.0
20260507064924 42 129 0.0 0.0 0.00 0.00 0.00 78 1022.4
20260507064424 43 129 0.0 0.0 0.00 0.00 0.00 76 1022.0
20260507063926 43 129 0.0 0.0 0.00 0.00 0.00 77 1022.0
20260507063423 43 119 0.0 0.9 0.00 0.00 0.00 76 1022.0
20260507062922 44 103 0.0 0.0 0.00 0.00 0.00 75 1022.0
20260507062423 44 60 0.0 0.9 0.00 0.00 0.00 74 1021.7
20260507061924 44 49 0.0 0.9 0.00 0.00 0.00 73 1022.0
20260507061424 44 44 0.0 0.0 0.00 0.00 0.00 73 1021.7
20260507060923 44 69 0.0 0.0 0.00 0.00 0.00 73 1021.7
20260507060423 45 69 0.0 0.0 0.00 0.00 0.00 71 1021.7
20260507055925 45 34 0.0 0.9 0.00 0.00 0.00 70 1021.7
20260507055422 46 113 0.0 1.7 0.00 0.00 0.00 72 1021.3
20260507054922 46 106 0.9 1.7 0.00 0.00 0.00 72 1022.0
20260507054424 46 125 1.7 1.7 0.00 0.00 0.00 70 1021.7
20260507053922 46 123 0.0 0.9 0.00 0.00 0.00 68 1022.0
20260507053424 46 142 0.0 0.0 0.00 0.00 0.00 69 1021.7
20260507052923 46 119 1.7 1.7 0.00 0.00 0.00 72 1021.7
20260507052422 45 129 0.9 1.7 0.00 0.00 0.00 72 1022.0
20260507051923 45 89 0.0 0.0 0.00 0.00 0.00 71 1021.7
20260507051423 46 117 0.0 0.0 0.00 0.00 0.00 70 1021.7
20260507050923 46 37 0.0 0.0 0.00 0.00 0.00 68 1021.3
20260507050424 47 135 0.0 0.0 0.00 0.00 0.00 68 1021.3
20260507045922 47 5 0.0 0.9 0.00 0.00 0.02 67 1021.7
20260507045422 47 350 0.0 1.7 0.00 0.00 0.02 68 1021.7
20260507044924 47 16 0.9 1.7 0.00 0.00 0.02 67 1021.3
20260507044422 47 135 0.0 0.9 0.00 0.00 0.02 68 1021.3
20260507043923 47 340 0.0 1.7 0.00 0.00 0.02 68 1021.3
20260507043423 47 11 0.0 1.7 0.00 0.00 0.02 67 1021.3
20260507042923 47 30 0.0 1.7 0.00 0.00 0.02 66 1021.3
20260507042424 48 129 0.0 0.9 0.00 0.00 0.02 67 1021.3
20260507041923 48 19 1.7 1.7 0.00 0.00 0.02 65 1021.3
20260507041422 48 13 1.7 1.7 0.00 0.00 0.02 65 1021.3
20260507040923 48 326 0.0 1.7 0.00 0.00 0.02 65 1021.3
20260507040424 48 352 0.0 1.7 0.00 0.00 0.02 65 1021.3
20260507035922 48 339 0.9 1.7 0.00 0.00 0.02 65 1021.3
20260507035424 48 22 0.0 0.9 0.00 0.00 0.02 65 1021.0
20260507034923 48 29 0.9 1.7 0.00 0.00 0.02 65 1021.0
20260507034422 48 8 0.9 1.7 0.00 0.00 0.02 66 1021.0
20260507033922 48 348 1.7 2.6 0.00 0.00 0.02 65 1021.0
20260507033423 48 5 0.9 1.7 0.00 0.00 0.02 66 1021.0
20260507032923 48 332 0.9 1.7 0.00 0.00 0.02 66 1021.0
20260507032422 48 0 0.9 1.7 0.00 0.00 0.02 66 1021.0
20260507031923 48 6 0.0 1.7 0.00 0.00 0.02 65 1021.0
20260507031426 49 346 0.9 0.9 0.00 0.00 0.02 65 1021.0
20260507030924 49 355 0.9 1.7 0.00 0.00 0.02 66 1020.7
20260507030422 49 329 0.9 1.7 0.00 0.00 0.02 65 1021.0
20260507025923 49 357 0.9 1.7 0.00 0.00 0.02 66 1021.0
20260507025423 49 339 1.7 1.7 0.00 0.00 0.02 65 1021.0
20260507024922 49 351 1.7 2.6 0.00 0.00 0.02 65 1021.0
20260507024422 50 332 1.7 2.6 0.00 0.00 0.02 65 1021.0
20260507023923 49 325 0.9 1.7 0.00 0.00 0.02 65 1021.0
20260507023424 50 32 0.0 0.9 0.00 0.00 0.02 65 1020.7
20260507022924 50 44 0.0 0.9 0.00 0.00 0.02 64 1020.7
20260507022424 50 37 0.0 0.9 0.00 0.00 0.02 64 1020.7
20260507021924 50 26 0.9 0.9 0.00 0.00 0.02 64 1020.3
20260507021425 50 6 0.0 0.0 0.00 0.00 0.02 64 1020.7
20260507020927 51 0 0.0 1.7 0.00 0.00 0.02 64 1020.3
20260507020426 51 333 1.7 2.6 0.00 0.00 0.02 63 1020.0
20260507015923 51 334 0.9 0.9 0.00 0.00 0.02 64 1020.0
20260507015424 51 339 0.0 1.7 0.00 0.00 0.02 63 1020.0
20260507014923 52 0 0.0 1.7 0.00 0.00 0.02 63 1019.6
20260507014424 52 332 1.7 2.6 0.00 0.00 0.02 63 1019.6
20260507013922 52 345 0.0 1.7 0.00 0.00 0.02 63 1019.6
20260507013424 52 24 0.0 1.7 0.00 0.00 0.02 62 1019.6
20260507012923 53 9 0.9 1.7 0.00 0.00 0.02 60 1019.6
20260507012424 54 29 0.0 1.7 0.00 0.00 0.02 58 1019.6
20260507011924 54 35 0.0 0.9 0.00 0.00 0.02 58 1019.3
20260507011425 55 60 0.0 0.9 0.00 0.00 0.02 55 1019.6
20260507010924 55 11 0.0 0.9 0.00 0.00 0.02 58 1019.3
20260507010424 56 322 0.0 0.9 0.00 0.00 0.02 54 1019.0
20260507005924 56 296 0.0 0.0 0.00 0.00 0.02 55 1019.0
20260507005423 57 32 0.0 0.9 0.00 0.00 0.02 54 1019.0
20260507004923 58 319 0.9 1.7 0.00 0.00 0.02 52 1019.0
20260507004424 58 341 1.7 2.6 0.00 0.00 0.02 50 1019.0
20260507003922 57 346 1.7 2.6 0.00 0.00 0.02 51 1019.0
20260507003423 57 22 0.0 2.6 0.00 0.00 0.02 51 1019.0
20260507002922 57 335 1.7 1.7 0.00 0.00 0.02 51 1018.6
20260507002423 58 29 0.9 2.6 0.00 0.00 0.02 48 1018.3
20260507001923 58 66 0.0 1.7 0.00 0.00 0.02 49 1018.6
20260507001422 58 338 1.7 4.3 0.00 0.00 0.02 48 1018.6
20260507000925 58 326 1.7 7.8 0.00 0.00 0.02 47 1018.3
20260507000427 58 355 1.7 2.6 0.00 0.00 0.02 48 1018.3
20260506235922 58 351 2.6 4.3 0.00 0.00 0.02 47 1017.9
20260506235424 59 336 1.7 7.8 0.00 0.00 0.02 45 1017.6
20260506234922 59 1 2.6 4.3 0.00 0.00 0.02 46 1017.9
20260506234422 59 17 2.6 7.8 0.00 0.00 0.02 45 1017.6
20260506233922 59 327 5.2 5.2 0.00 0.00 0.02 46 1017.6
20260506233424 59 332 1.7 4.3 0.00 0.00 0.02 48 1017.6
20260506232922 60 316 5.2 7.0 0.00 0.00 0.02 45 1017.3
20260506232424 60 321 4.3 6.1 0.00 0.00 0.02 47 1017.3
20260506231924 60 10 2.6 6.1 0.00 0.00 0.02 47 1017.6
20260506231422 59 328 4.3 5.2 0.00 0.00 0.02 47 1017.6
20260506230923 60 325 1.7 5.2 0.00 0.00 0.02 47 1017.6
20260506230425 60 79 1.7 6.1 0.00 0.00 0.02 45 1017.6
20260506225923 61 297 2.6 6.1 0.00 0.00 0.02 46 1017.6
20260506225422 62 341 5.2 7.0 0.00 0.00 0.02 46 1017.3
20260506224925 62 4 0.0 7.0 0.00 0.00 0.02 44 1017.3
20260506224423 61 208 0.9 4.3 0.00 0.00 0.02 43 1017.3
20260506223923 61 267 0.0 6.1 0.00 0.00 0.02 45 1017.6
20260506223423 62 340 2.6 3.5 0.00 0.00 0.02 46 1017.6
20260506222925 61 0 0.9 5.2 0.00 0.00 0.02 44 1017.6
20260506222423 61 22 0.9 6.1 0.00 0.00 0.02 43 1017.6
20260506221922 61 336 4.3 7.8 0.00 0.00 0.02 45 1017.6
20260506221422 60 61 1.7 5.2 0.00 0.00 0.02 46 1017.6
20260506220923 60 44 0.9 7.8 0.00 0.00 0.02 46 1017.6
20260506220424 60 2 3.5 8.7 0.00 0.00 0.02 43 1017.9
20260506215924 61 359 5.2 6.1 0.00 0.00 0.02 44 1017.6
20260506215422 61 337 2.6 7.8 0.00 0.00 0.02 43 1017.3
20260506214922 61 55 0.0 7.0 0.00 0.00 0.02 43 1017.3
20260506214424 61 355 0.9 10.4 0.00 0.00 0.02 44 1017.6
20260506213923 62 340 7.0 9.6 0.00 0.00 0.02 43 1017.3
20260506213423 61 0 2.6 4.3 0.00 0.00 0.02 46 1017.6
20260506212923 61 338 2.6 6.1 0.00 0.00 0.02 46 1017.6
20260506212422 60 220 3.5 4.3 0.00 0.00 0.02 47 1017.6
20260506211922 60 51 1.7 7.0 0.00 0.00 0.02 46 1017.6
20260506211423 60 329 3.5 6.1 0.00 0.00 0.02 44 1017.6
20260506210924 61 14 0.9 7.0 0.00 0.00 0.02 46 1017.6
20260506210425 60 55 4.3 7.8 0.00 0.00 0.02 47 1017.6
20260506205924 61 330 4.3 7.8 0.00 0.00 0.02 46 1017.9
20260506205422 62 326 7.0 7.0 0.00 0.00 0.02 46 1017.9
20260506204924 61 62 4.3 6.1 0.00 0.00 0.02 48 1017.9
20260506204425 60 302 1.7 4.3 0.00 0.00 0.02 49 1018.3
20260506203923 60 355 3.5 8.7 0.00 0.00 0.02 47 1017.9
20260506203424 60 339 5.2 7.8 0.00 0.00 0.02 47 1017.9
20260506202922 60 127 1.7 3.5 0.00 0.00 0.02 47 1017.9
20260506202424 60 61 2.6 7.0 0.00 0.00 0.02 50 1017.9
20260506201922 59 315 2.6 5.2 0.00 0.00 0.02 49 1017.9
20260506201424 60 336 6.1 12.2 0.00 0.00 0.02 50 1018.3
20260506200923 60 342 3.5 5.2 0.00 0.00 0.02 47 1018.3
20260506200424 59 315 3.5 4.3 0.00 0.00 0.02 46 1018.6
20260506195922 60 28 3.5 4.3 0.00 0.00 0.02 47 1018.3
20260506195424 60 11 2.6 7.0 0.00 0.00 0.02 47 1018.6
20260506194924 61 297 1.7 6.1 0.00 0.00 0.02 47 1018.6
20260506194422 60 53 1.7 6.1 0.00 0.00 0.02 49 1019.0
20260506193924 59 354 2.6 4.3 0.00 0.00 0.02 54 1019.0
20260506193424 59 299 5.2 6.1 0.00 0.00 0.02 50 1019.0
20260506192926 59 343 3.5 9.6 0.00 0.00 0.02 47 1019.0
20260506192423 58 4 4.3 5.2 0.00 0.00 0.02 51 1019.0
20260506191922 59 335 9.6 11.3 0.00 0.00 0.02 48 1019.0
20260506191423 59 2 5.2 13.0 0.00 0.00 0.02 50 1019.0
20260506190923 59 335 1.7 8.7 0.00 0.00 0.02 54 1019.0
20260506190424 58 340 7.0 8.7 0.00 0.00 0.02 51 1019.3
20260506185924 59 330 7.8 14.8 0.00 0.00 0.02 49 1019.0
20260506185424 59 293 2.6 4.3 0.00 0.00 0.02 53 1019.3
20260506184925 58 24 2.6 6.1 0.00 0.00 0.02 50 1019.3
20260506184424 58 355 2.6 4.3 0.00 0.00 0.02 51 1019.6
20260506183924 59 338 6.1 8.7 0.00 0.00 0.02 52 1019.3
20260506183425 58 338 1.7 3.5 0.00 0.00 0.02 53 1019.6
20260506182923 57 350 2.6 8.7 0.00 0.00 0.02 51 1019.6
20260506182426 58 34 1.7 2.6 0.00 0.00 0.02 52 1020.0
20260506181924 57 359 5.2 11.3 0.00 0.00 0.02 50 1020.3
20260506181426 58 325 6.1 11.3 0.00 0.00 0.02 50 1020.3
20260506180925 59 351 3.5 7.8 0.00 0.00 0.02 49 1020.0
20260506180424 59 82 1.7 5.2 0.00 0.00 0.02 50 1019.6
20260506175922 58 3 1.7 4.3 0.00 0.00 0.02 56 1020.0
20260506175425 57 59 2.6 8.7 0.00 0.00 0.02 56 1020.0
20260506174923 58 305 4.3 8.7 0.00 0.00 0.02 50 1020.3
20260506174424 57 71 0.0 6.1 0.00 0.00 0.02 55 1020.3
20260506173924 58 310 4.3 8.7 0.00 0.00 0.02 53 1020.7
20260506173425 57 178 0.9 4.3 0.00 0.00 0.02 54 1020.3
20260506172925 56 142 0.9 3.5 0.00 0.00 0.02 55 1020.7
20260506172422 55 344 3.5 3.5 0.00 0.00 0.02 53 1020.7
20260506171924 56 307 3.5 5.2 0.00 0.00 0.02 54 1020.7
20260506171424 57 337 3.5 8.7 0.00 0.00 0.02 53 1020.7
20260506170923 56 307 1.7 4.3 0.00 0.00 0.02 53 1020.7
20260506170426 56 327 5.2 7.8 0.00 0.00 0.02 55 1020.7
20260506165923 55 328 2.6 3.5 0.00 0.00 0.02 61 1020.7
20260506165423 56 310 1.7 7.8 0.00 0.00 0.02 55 1020.0
20260506164925 56 4 4.3 4.3 0.00 0.00 0.02 56 1020.0
20260506164430 56 359 3.5 6.1 0.00 0.00 0.02 62 1020.0
20260506163924 55 353 4.3 4.3 0.00 0.00 0.02 60 1020.0
20260506163424 55 4 1.7 4.3 0.00 0.00 0.02 58 1020.0
20260506162925 55 38 2.6 4.3 0.00 0.00 0.02 63 1020.0
20260506162425 54 290 1.7 3.5 0.00 0.00 0.02 62 1019.6
20260506161924 54 61 2.6 4.3 0.00 0.00 0.02 64 1020.0
20260506161424 54 0 2.6 5.2 0.00 0.00 0.02 64 1020.0
20260506160925 53 262 0.9 4.3 0.00 0.00 0.02 64 1020.0
20260506160426 54 359 1.7 5.2 0.00 0.00 0.02 62 1020.0
20260506155924 54 22 3.5 4.3 0.00 0.00 0.02 62 1019.6
20260506155424 55 75 1.7 5.2 0.00 0.00 0.02 63 1020.0
20260506154925 54 57 2.6 4.3 0.00 0.00 0.02 65 1019.6
20260506154422 55 48 0.9 5.2 0.00 0.00 0.02 63 1019.6
20260506153929 54 73 1.7 5.2 0.00 0.00 0.02 65 1019.6
20260506153427 53 341 0.9 5.2 0.00 0.00 0.02 64 1019.6
20260506152925 53 107 0.0 5.2 0.00 0.00 0.02 63 1019.6
20260506152424 54 18 2.6 3.5 0.00 0.00 0.02 67 1019.6
20260506151924 53 206 3.5 7.0 0.00 0.00 0.02 65 1019.6
20260506151425 52 136 1.7 4.3 0.00 0.00 0.02 66 1019.6
20260506150925 52 172 0.9 6.1 0.00 0.00 0.02 69 1019.6
20260506150424 50 124 0.9 5.2 0.00 0.00 0.02 74 1019.6
20260506145924 51 350 4.3 6.1 0.00 0.00 0.02 76 1019.6
20260506144938 50 23 2.6 5.2 0.00 0.00 0.02 77 1019.3
20260506144425 49 13 0.0 2.6 0.00 0.00 0.02 79 1019.6
20260506143924 48 337 0.9 3.5 0.00 0.00 0.02 80 1019.6
20260506143422 49 153 1.7 2.6 0.00 0.00 0.02 81 1020.0
20260506142924 49 62 0.0 1.7 0.00 0.00 0.02 81 1020.3
20260506142422 48 100 1.7 4.3 0.00 0.00 0.02 79 1020.3
20260506141924 48 86 0.0 6.1 0.00 0.00 0.02 82 1020.3
20260506141425 48 250 1.7 4.3 0.00 0.00 0.02 85 1020.0
20260506140925 48 71 2.6 5.2 0.00 0.00 0.02 84 1020.0
20260506140425 48 145 1.7 3.5 0.00 0.00 0.02 86 1020.3
20260506135924 47 83 0.0 3.5 0.00 0.00 0.02 84 1020.3
20260506135425 47 112 1.7 4.3 0.00 0.00 0.02 85 1020.3
20260506134925 47 105 4.3 4.3 0.00 0.00 0.02 87 1020.0
20260506134425 46 105 1.7 4.3 0.00 0.00 0.02 85 1020.3
20260506133924 47 346 2.6 6.1 0.00 0.00 0.02 86 1020.0
20260506133424 46 46 1.7 5.2 0.00 0.00 0.02 86 1020.0
20260506132925 46 52 1.7 4.3 0.00 0.00 0.02 88 1020.0
20260506132425 46 49 0.9 5.2 0.00 0.00 0.02 88 1020.3
20260506131925 46 84 0.9 2.6 0.00 0.00 0.02 89 1020.3
20260506131424 46 63 0.9 2.6 0.00 0.00 0.02 90 1020.0
20260506130925 46 77 2.6 4.3 0.00 0.00 0.02 90 1020.3
20260506130425 46 151 1.7 3.5 0.00 0.00 0.02 90 1020.0
20260506125922 45 11 0.0 4.3 0.00 0.00 0.02 92 1020.3
20260506125428 45 54 2.6 4.3 0.00 0.00 0.02 92 1020.3
20260506124925 45 46 2.6 5.2 0.00 0.00 0.02 93 1020.3
20260506124424 45 5 0.0 2.6 0.00 0.00 0.02 93 1020.3
20260506123924 45 129 1.7 3.5 0.00 0.00 0.02 94 1020.7
20260506123426 45 302 0.0 4.3 0.00 0.00 0.02 94 1020.3
20260506122924 45 23 1.7 7.8 0.00 0.00 0.02 95 1020.7
20260506122424 45 338 0.9 3.5 0.00 0.00 0.02 95 1020.7
20260506121925 45 16 2.6 4.3 0.00 0.00 0.02 95 1020.7
20260506121424 45 328 4.3 5.2 0.00 0.00 0.02 96 1020.7
20260506120927 45 332 6.1 6.1 0.00 0.00 0.02 96 1020.3
20260506120424 45 333 4.3 5.2 0.00 0.00 0.02 96 1020.3
20260506115922 45 335 2.6 6.1 0.00 0.00 0.02 96 1020.0
20260506115424 45 12 2.6 5.2 0.00 0.00 0.02 96 1020.0
20260506114925 45 316 3.5 4.3 0.00 0.00 0.02 96 1020.0
20260506114425 45 342 2.6 4.3 0.00 0.00 0.02 96 1020.0
20260506113924 45 325 2.6 5.2 0.00 0.00 0.02 96 1019.6
20260506113424 45 333 2.6 4.3 0.00 0.00 0.02 96 1019.6
20260506112924 45 346 3.5 6.1 0.00 0.00 0.02 96 1019.3
20260506112422 45 345 4.3 6.1 0.00 0.00 0.02 96 1019.6
20260506111924 45 329 2.6 3.5 0.00 0.00 0.02 96 1019.6
20260506111424 45 332 1.7 5.2 0.00 0.00 0.02 95 1019.6
20260506110923 45 315 1.7 4.3 0.00 0.00 0.02 96 1019.3
20260506110425 45 5 2.6 5.2 0.00 0.00 0.02 96 1019.0
20260506105927 45 42 2.6 4.3 0.00 0.00 0.02 96 1018.6
20260506105425 45 355 3.5 7.0 0.00 0.00 0.02 96 1019.0
20260506104924 45 6 4.3 6.1 0.00 0.00 0.02 96 1019.0
20260506104423 45 29 4.3 7.8 0.00 0.00 0.02 96 1018.6